Regional Weather Roundup
Issued by NWS

Home | Current Version | Previous Version | Graphics & Text | Print | Product List | Glossary Off
Versions: 1 2 3 4 5 6 7 8 9 10 11 12 13 14 15 16 17 18 19 20 21 22 23 24 25 26 27 28 29 30 31 32 33 34 35 36 37 38 39 40 41 42 43 44 45 46 47 48 49 50

000
ASUS43 KMKX 242121
RWRWI

WISCONSIN REGIONAL WEATHER ROUNDUP
NATIONAL WEATHER SERVICE MILWAUKEE/SULLIVAN WI
300 PM CST FRI FEB 24 2017

NOTE: "FAIR" INDICATES FEW OR NO CLOUDS BELOW 12,000 FEET WITH NO
SIGNIFICANT WEATHER AND/OR OBSTRUCTIONS TO VISIBILITY.

WIZ001-002-006>008-014>016-023>028-242200-
NORTHWEST WISCONSIN

CITY           SKY/WX    TMP DP  RH WIND       PRES   REMARKS
SUPERIOR ARPT  MOSUNNY   24  11  56 NE9       29.90F WCI  15
ASHLAND        CLOUDY    19  14  81 N17G25    29.87F HAZE    WCI   4
HAYWARD        LGT SNOW  20  13  74 N15G23    29.81S WCI   6
SIREN          CLOUDY    23  13  63 N13G26    29.84R WCI  12
CUMBERLAND     CLOUDY    23  12  63 N17G24    29.77S WCI   9
RICE LAKE      LGT SNOW  23  17  77 N18       29.78S WCI   9
CHETEK         LGT SNOW  23  18  81 N12G22    29.76S WCI  11
LADYSMITH      LGT SNOW  24  19  78 N17G25    29.74R WCI  11
EAU CLAIRE     LGT SNOW  24  19  81 N14       29.72R WCI  12
MENOMONIE      LGT SNOW  25  19  79 N22       29.74F WCI  10
NEW RICHMOND   CLOUDY    26  17  68 N20       29.79S WCI  12
OSCEOLA        CLOUDY    26  16  64 N13G22    29.85R WCI  15
$$

WIZ003>005-009-010-017-018-242200-
NORTH CENTRAL WISCONSIN

CITY           SKY/WX    TMP DP  RH WIND       PRES   REMARKS
MANITOWISH WTR LGT SNOW  19  16  90 N13G22    29.70F WCI   5
ARBOR VITAE    LGT SNOW  22  17  83 N14G20      N/A  WCI   9
WOODRUFF       LGT SNOW  22  17  83 N14G20      N/A  WCI   9
RHINELANDER    MIX PCPN  21  14  74 N13G24    29.65F WCI   9
EAGLE RIVER    CLOUDY    19  13  76 N14G25    29.67S WCI   6
LAND O LAKES   LGT SNOW  19  14  80 N16G26    29.71S WCI   4
PHILLIPS       LGT SNOW  21  16  81 N22G28    29.69S WCI   4
TOMAHAWK       CLOUDY    22  15  75 N12G21    29.67S WCI  10
MEDFORD        CLOUDY    23  17  77 N18G26    29.65R WCI   8
MERRILL        NOT AVBL
$$

WIZ029-030-035-036-043>047-242200-
CENTRAL WISCONSIN

CITY           SKY/WX    TMP DP  RH WIND       PRES   REMARKS
WAUSAU         FLURRIES  24  18  77 N14G24    29.62S WCI  12
MOSINEE        LGT SNOW  25  21  86 N15G21    29.63F WCI  12
MARSHFIELD     FLURRIES  26  18  71 N10G22    29.63R WCI  16
STEVENS POINT  CLOUDY    23  21  91 N13       29.63S FOG     WCI  11
WAUPACA        CLOUDY    28  25  86 N10G17    29.60F FOG     WCI  19
WAUTOMA        CLOUDY    27  24  89 N13       29.61R WCI  16
WISC RAPIDS    CLOUDY    26  23  88 NE12      29.63S FOG     WCI  16
CAMP DOUGLAS   FRZ DRZL  27  25  93 N8        29.63R FOG     WCI  18
$$

WIZ011>013-019>022-031-037>040-048>050-242200-
NORTHEAST WISCONSIN

CITY           SKY/WX    TMP DP  RH WIND       PRES   REMARKS
ANTIGO         CLOUDY    22  18  86 N16       29.62S WCI   8
SHAWANO        CLOUDY    28  25  87 N15       29.62S FOG     WCI  16
OCONTO         CLOUDY    27  25  92 N16G22    29.61F WCI  14
STURGEON BAY   MIX PCPN  28  27  93 N20G28    29.58F FOG     WCI  15
GREEN BAY      LGT SNOW  29  27  92 N20       29.58S FOG     WCI  16
MANITOWOC      MIX PCPN  30  28  92 N14       29.54R FOG     WCI  19
APPLETON       CLOUDY    27  27 100 N21G28    29.55F FOG     WCI  13
CLINTONVILLE   MIX PCPN  27  23  86 N15G22    29.61S WCI  15
OSHKOSH        CLOUDY    28  25  88 N15       29.56S FOG     WCI  16
$$

WIZ032>034-041-042-053>061-242200-
SOUTHWEST WISCONSIN

CITY           SKY/WX    TMP DP  RH WIND       PRES   REMARKS
LA CROSSE      MIX PCPN  30  23  75 N14       29.67R WCI  19
SPARTA         LGT SNOW  27  25  91 N10       29.66S WCI  17
VIROQUA        CLOUDY    27  26  94 N10       29.61R WCI  17
BOSCOBEL       CLOUDY    31  27  85 NE8       29.62S FOG     WCI  23
PRAIRIE DU CHI MIX PCPN  31  29  92 N5        29.62S WCI  26
PLATTEVILLE    CLOUDY    31  31 100 N10       29.56S WCI  22
$$

WIZ056-057-062-063-064-067-068-242200-
SOUTH CENTRAL WISCONSIN

CITY           SKY/WX    TMP DP  RH WIND       PRES   REMARKS
REEDSBURG      CLOUDY    27  27  98 N12       29.60R FOG     WCI  17
BARABOO/DELLS  CLOUDY    28  26  93 N8        29.59R FOG     WCI  19
LONE ROCK      LGT SNOW  30  26  85 N13       29.60S FOG     WCI  20
MINERAL POINT  CLOUDY    32  32 100 N5        29.55R FOG     WCI  27
MADISON        FRZ DRZL  29  26  89 N20G26    29.56R FOG     WCI  16
MIDDLETON      CLOUDY    31  29  94 N7G17     29.56R WCI  24
WATERTOWN      CLOUDY    30  30 100 N12G17    29.52R FOG     WCI  20
MONROE         CLOUDY    32  30  93 N20       29.51R FOG     WCI  20
JANESVILLE     CLOUDY    36  36 100 NE13G18   29.50R FOG     WCI  27
$$

WIZ051-052-058>065-066-070>072-242200-
SOUTHEAST WISCONSIN

CITY           SKY/WX    TMP DP  RH WIND       PRES   REMARKS
MILWAUKEE      LGT RAIN  36  33  89 N15       29.48S FOG     WCI  27
WAUKESHA       CLOUDY    32  30  93 N12G18    29.51R FOG     WCI  23
MILWAUKEE/TIMM LGT RAIN  34  30  86 N15       29.50S WCI  24
RACINE         MIX PCPN  36  34  92 N18G24    29.49R FOG     WCI  26
KENOSHA        CLOUDY    36  34  92 N9        29.48R FOG     WCI  29
FOND DU LAC    LGT SNOW  29  25  85 N22G32    29.56R FOG     WCI  15
SHEBOYGAN      FRZ RAIN  32  30  92 N14G26    29.51S FOG     WCI  22
WEST BEND      CLOUDY    32  32 100 N6        29.51R FOG     WCI  26
JUNEAU         CLOUDY    28  27  94 N12       29.54S FOG     WCI  18
$$

LSZ147-162-242200-
LAKE SUPERIOR

STATION/POSITION TIME  TEMP    WIND        PRES    WAVE
                       AIR SEA DIR/SP/G            HT/PER
                 (UTC) (F)     (DEG/KT/KT) (MB)    (FT/S)
DEVILS ISLAND    2100   18      30/ 14/ 17 1013.8F
PORT WING        2040   22      50/ 13/ 19 1012.9S
SAXON HARBOR     2058   22      30/ 21/ 25 1010.8F
$$

LMZ867-665-643>646-242200-
LAKE MICHIGAN

STATION/POSITION TIME  TEMP    WIND        PRES    WAVE
                       AIR SEA DIR/SP/G            HT/PER
                 (UTC) (F)     (DEG/KT/KT) (MB)    (FT/S)
CHAMBERS ISLAND  1840   28     360/ 21/ 32 1003.7
NORTHPORT PIER   2104   28      10/  4/  9 1003.0
SISTER BAY       1950   29      30/ 13/ 22   N/A
KEWAUNEE LAKESHO 2100   29      10/ 10/ 18 1000.5
SHEBOYGAN LAKESH 2100   33      10/ 29/ 33  999.5F
PORT WASHINGTON  2040   34      20/  9/ 14 1000.3S
MILWAUKEE LAKESH 2100   35     360/ 17/ 21   N/A
KENOSHA   LAKESH 2100   36     360/ 14/ 17  998.6
$$

TC  - TEMPERATURE IN CELSIUS
VSB - VISIBILITY IN STATUTE MILES
WCI - WIND CHILL INDEX
HX  - HEAT INDEX




USA.gov is the U.S. government's official web portal to all federal, state and local government web resources and services.